Wetterdaten: Woche 12.03.18 - 18.03.18 (KW11)
Datum Zeit Temp. I. Temp. A. Feuchte I. Feuchte A. Luftdruck Regen Wind Richtung Sonnenschein UV Solar Taupunkt Windchill Windben
12.03.2018 00:00 23,3 C 8,1 C 58 % 85 % 993,9 hPa 0,0 l/m 2,3 km/h (1 Bft) NO 0,00 h 0,0 UV-I 0 W/m 5,6 C 8,1 C 5,8 km/h (1 Bft)
12.03.2018 01:00 23,2 C 7,9 C 59 % 85 % 993,7 hPa 0,0 l/m 0,2 km/h (0 Bft) O-NO 0,00 h 0,0 UV-I 0 W/m 5,6 C 7,9 C 0,8 km/h (0 Bft)
12.03.2018 02:00 23,0 C 7,6 C 60 % 86 % 993,1 hPa 0,0 l/m 0,0 km/h (0 Bft) N 0,00 h 0,0 UV-I 0 W/m 5,4 C 7,6 C 0,1 km/h (0 Bft)
12.03.2018 03:00 22,9 C 6,9 C 60 % 87 % 993,0 hPa 0,2 l/m 0,0 km/h (0 Bft) N 0,00 h 0,0 UV-I 0 W/m 4,9 C 6,9 C 0,0 km/h (0 Bft)
12.03.2018 04:00 22,9 C 6,3 C 60 % 89 % 992,7 hPa 0,4 l/m 0,0 km/h (0 Bft) N 0,00 h 0,0 UV-I 0 W/m 4,7 C 6,3 C 0,0 km/h (0 Bft)
12.03.2018 05:00 22,9 C 5,8 C 60 % 92 % 992,7 hPa 1,2 l/m 0,0 km/h (0 Bft) N 0,00 h 0,0 UV-I 0 W/m 4,5 C 5,8 C 0,0 km/h (0 Bft)
12.03.2018 06:00 22,9 C 5,5 C 60 % 93 % 992,7 hPa 2,2 l/m 0,0 km/h (0 Bft) N 0,00 h 0,0 UV-I 0 W/m 4,5 C 5,5 C 0,0 km/h (0 Bft)
12.03.2018 07:00 23,0 C 5,8 C 60 % 95 % 992,8 hPa 2,4 l/m 0,0 km/h (0 Bft) N 0,00 h 0,0 UV-I 9 W/m 5,0 C 5,8 C 0,0 km/h (0 Bft)
12.03.2018 08:00 23,1 C 6,0 C 60 % 95 % 992,9 hPa 2,6 l/m 0,1 km/h (0 Bft) NO 0,00 h 0,0 UV-I 20 W/m 5,3 C 6,0 C 0,4 km/h (0 Bft)
12.03.2018 09:00 23,1 C 6,3 C 59 % 96 % 992,9 hPa 2,0 l/m 0,5 km/h (0 Bft) S-SW 0,00 h 0,0 UV-I 32 W/m 5,7 C 6,3 C 1,2 km/h (1 Bft)
12.03.2018 10:00 23,2 C 7,2 C 59 % 96 % 993,1 hPa 0,6 l/m 2,2 km/h (1 Bft) S-SW 0,00 h 0,5 UV-I 57 W/m 6,6 C 7,2 C 5,7 km/h (1 Bft)
12.03.2018 11:00 23,3 C 8,0 C 59 % 97 % 993,3 hPa 0,2 l/m 3,5 km/h (1 Bft) SW 0,00 h 0,6 UV-I 80 W/m 7,5 C 7,9 C 7,6 km/h (2 Bft)
12.03.2018 12:00 23,3 C 8,5 C 58 % 95 % 993,5 hPa 0,0 l/m 5,3 km/h (1 Bft) SW 0,00 h 0,6 UV-I 71 W/m 7,8 C 8,1 C 11,2 km/h (2 Bft)
12.03.2018 13:00 23,3 C 8,5 C 58 % 94 % 993,6 hPa 0,2 l/m 7,1 km/h (2 Bft) W-SW 0,00 h 0,5 UV-I 50 W/m 7,6 C 7,5 C 14,2 km/h (3 Bft)
12.03.2018 14:00 23,3 C 8,6 C 58 % 94 % 994,0 hPa 0,2 l/m 6,4 km/h (2 Bft) W-SW 0,00 h 0,6 UV-I 79 W/m 7,7 C 7,8 C 13,0 km/h (3 Bft)
12.03.2018 15:00 23,4 C 8,4 C 58 % 94 % 994,6 hPa 0,0 l/m 6,4 km/h (2 Bft) W-SW 0,00 h 0,5 UV-I 89 W/m 7,5 C 7,8 C 14,3 km/h (3 Bft)
12.03.2018 16:00 23,4 C 8,2 C 58 % 94 % 995,2 hPa 0,2 l/m 6,0 km/h (2 Bft) W-SW 0,00 h 0,0 UV-I 40 W/m 7,3 C 7,6 C 13,0 km/h (3 Bft)
12.03.2018 17:00 23,4 C 8,3 C 58 % 94 % 995,7 hPa 0,0 l/m 1,3 km/h (1 Bft) SW 0,00 h 0,0 UV-I 38 W/m 7,4 C 8,3 C 4,1 km/h (1 Bft)
12.03.2018 18:00 23,7 C 8,2 C 58 % 94 % 996,3 hPa 0,0 l/m 1,3 km/h (1 Bft) SW 0,00 h 0,0 UV-I 5 W/m 7,2 C 8,2 C 4,4 km/h (1 Bft)
12.03.2018 19:00 23,6 C 7,9 C 60 % 93 % 997,0 hPa 0,0 l/m 1,3 km/h (1 Bft) SW 0,00 h 0,0 UV-I 0 W/m 6,9 C 7,9 C 4,5 km/h (1 Bft)
12.03.2018 20:00 23,5 C 7,8 C 60 % 92 % 997,5 hPa 0,0 l/m 4,6 km/h (1 Bft) SW 0,00 h 0,0 UV-I 0 W/m 6,5 C 7,5 C 10,6 km/h (2 Bft)
12.03.2018 21:00 23,4 C 7,7 C 60 % 89 % 998,4 hPa 0,0 l/m 3,1 km/h (1 Bft) SW 0,00 h 0,0 UV-I 0 W/m 6,0 C 7,5 C 7,8 km/h (2 Bft)
12.03.2018 22:00 23,5 C 7,1 C 61 % 90 % 999,0 hPa 0,0 l/m 0,4 km/h (0 Bft) SW 0,00 h 0,0 UV-I 0 W/m 5,6 C 7,1 C 2,1 km/h (1 Bft)
12.03.2018 23:00 23,5 C 6,8 C 61 % 91 % 999,2 hPa 0,0 l/m 0,5 km/h (0 Bft) S-SW 0,00 h 0,0 UV-I 0 W/m 5,5 C 6,8 C 1,7 km/h (1 Bft)
13.03.2018 00:00 23,3 C 6,5 C 61 % 92 % 999,4 hPa 0,0 l/m 0,7 km/h (0 Bft) S 0,00 h 0,0 UV-I 0 W/m 5,3 C 6,5 C 2,3 km/h (1 Bft)
13.03.2018 01:00 23,2 C 6,3 C 61 % 92 % 999,6 hPa 0,0 l/m 3,8 km/h (1 Bft) S-SW 0,00 h 0,0 UV-I 0 W/m 5,1 C 6,1 C 8,3 km/h (2 Bft)
13.03.2018 02:00 23,0 C 6,2 C 62 % 90 % 999,7 hPa 0,0 l/m 2,7 km/h (1 Bft) S-SW 0,00 h 0,0 UV-I 0 W/m 4,7 C 6,1 C 7,1 km/h (2 Bft)
13.03.2018 03:00 22,9 C 5,9 C 63 % 90 % 1000,0 hPa 0,0 l/m 3,1 km/h (1 Bft) SW 0,00 h 0,0 UV-I 0 W/m 4,4 C 5,8 C 8,3 km/h (2 Bft)
13.03.2018 04:00 22,9 C 5,9 C 63 % 90 % 1000,6 hPa 0,0 l/m 2,5 km/h (1 Bft) S-SW 0,00 h 0,0 UV-I 0 W/m 4,4 C 5,8 C 7,0 km/h (2 Bft)
13.03.2018 05:00 22,9 C 5,7 C 63 % 92 % 1001,0 hPa 0,2 l/m 4,2 km/h (1 Bft) S 0,00 h 0,0 UV-I 0 W/m 4,5 C 5,6 C 9,7 km/h (2 Bft)
13.03.2018 06:00 22,8 C 5,6 C 63 % 94 % 1001,5 hPa 0,4 l/m 4,2 km/h (1 Bft) S 0,00 h 0,0 UV-I 9 W/m 4,7 C 5,4 C 10,1 km/h (2 Bft)
13.03.2018 07:00 22,9 C 5,7 C 62 % 94 % 1002,0 hPa 0,0 l/m 5,3 km/h (1 Bft) S-SW 0,00 h 0,0 UV-I 47 W/m 4,8 C 5,3 C 11,3 km/h (2 Bft)
13.03.2018 08:00 23,0 C 5,8 C 60 % 93 % 1002,6 hPa 0,2 l/m 5,4 km/h (1 Bft) SW 0,00 h 0,5 UV-I 37 W/m 4,8 C 5,4 C 11,3 km/h (2 Bft)
13.03.2018 09:00 23,1 C 6,1 C 57 % 92 % 1002,9 hPa 0,0 l/m 6,1 km/h (2 Bft) S 0,10 h 0,7 UV-I 101 W/m 4,8 C 5,4 C 12,7 km/h (3 Bft)
13.03.2018 10:00 23,2 C 6,3 C 56 % 92 % 1003,4 hPa 0,2 l/m 4,9 km/h (1 Bft) S 0,15 h 0,7 UV-I 118 W/m 5,1 C 5,9 C 9,8 km/h (2 Bft)
13.03.2018 11:00 23,2 C 6,7 C 56 % 90 % 1003,6 hPa 0,0 l/m 2,9 km/h (1 Bft) S 0,05 h 0,7 UV-I 99 W/m 5,3 C 6,6 C 6,9 km/h (2 Bft)
13.03.2018 12:00 23,2 C 7,0 C 56 % 86 % 1003,6 hPa 0,0 l/m 3,4 km/h (1 Bft) S 0,00 h 0,7 UV-I 80 W/m 4,8 C 6,9 C 7,4 km/h (2 Bft)
13.03.2018 13:00 23,2 C 7,7 C 55 % 80 % 1003,4 hPa 0,0 l/m 4,4 km/h (1 Bft) S 0,27 h 1,0 UV-I 184 W/m 4,5 C 7,4 C 9,2 km/h (2 Bft)
13.03.2018 14:00 23,5 C 8,0 C 55 % 80 % 1003,6 hPa 0,0 l/m 5,5 km/h (1 Bft) SW 0,42 h 1,2 UV-I 192 W/m 4,8 C 7,5 C 11,8 km/h (2 Bft)
13.03.2018 15:00 23,4 C 7,6 C 55 % 81 % 1003,9 hPa 0,0 l/m 4,5 km/h (1 Bft) SW 0,00 h 0,5 UV-I 54 W/m 4,7 C 7,4 C 10,1 km/h (2 Bft)
13.03.2018 16:00 23,3 C 7,3 C 55 % 83 % 1004,3 hPa 0,0 l/m 4,8 km/h (1 Bft) S-SW 0,00 h 0,0 UV-I 27 W/m 4,6 C 7,0 C 10,9 km/h (2 Bft)
13.03.2018 17:00 23,2 C 6,6 C 55 % 87 % 1004,6 hPa 0,4 l/m 3,8 km/h (1 Bft) S-SW 0,00 h 0,0 UV-I 12 W/m 4,6 C 6,4 C 9,1 km/h (2 Bft)
13.03.2018 18:00 23,1 C 6,0 C 56 % 92 % 1005,0 hPa 0,2 l/m 3,1 km/h (1 Bft) S-SW 0,00 h 0,0 UV-I 0 W/m 4,8 C 5,9 C 8,1 km/h (2 Bft)
13.03.2018 19:00 23,1 C 5,7 C 56 % 93 % 1005,3 hPa 0,4 l/m 4,5 km/h (1 Bft) SW 0,00 h 0,0 UV-I 0 W/m 4,7 C 5,4 C 10,9 km/h (2 Bft)
13.03.2018 20:00 23,1 C 5,4 C 57 % 93 % 1005,6 hPa 0,4 l/m 6,0 km/h (2 Bft) SW 0,00 h 0,0 UV-I 0 W/m 4,3 C 4,8 C 13,3 km/h (3 Bft)
13.03.2018 21:00 23,2 C 4,3 C 58 % 93 % 1006,7 hPa 0,0 l/m 6,8 km/h (2 Bft) W-SW 0,00 h 0,0 UV-I 0 W/m 3,3 C 3,0 C 13,4 km/h (3 Bft)
13.03.2018 22:00 23,2 C 3,7 C 59 % 94 % 1007,4 hPa 0,0 l/m 6,8 km/h (2 Bft) W-SW 0,00 h 0,0 UV-I 0 W/m 2,8 C 2,6 C 12,6 km/h (3 Bft)
13.03.2018 23:00 23,2 C 3,7 C 59 % 94 % 1008,0 hPa 0,0 l/m 5,9 km/h (2 Bft) W-SW 0,00 h 0,0 UV-I 0 W/m 2,8 C 2,8 C 11,4 km/h (2 Bft)
14.03.2018 00:00 23,0 C 3,5 C 60 % 94 % 1008,5 hPa 0,0 l/m 6,6 km/h (2 Bft) W-SW 0,00 h 0,0 UV-I 0 W/m 2,6 C 2,4 C 12,2 km/h (2 Bft)
14.03.2018 01:00 22,8 C 3,2 C 60 % 94 % 1009,1 hPa 0,0 l/m 5,5 km/h (1 Bft) W-SW 0,00 h 0,0 UV-I 0 W/m 2,3 C 2,5 C 10,0 km/h (2 Bft)
14.03.2018 02:00 22,7 C 2,8 C 60 % 94 % 1009,6 hPa 0,0 l/m 7,0 km/h (2 Bft) W-SW 0,00 h 0,0 UV-I 0 W/m 2,0 C 1,8 C 11,6 km/h (2 Bft)
14.03.2018 03:00 22,7 C 2,4 C 61 % 94 % 1010,2 hPa 0,4 l/m 4,9 km/h (1 Bft) W-NW 0,00 h 0,0 UV-I 0 W/m 1,6 C 2,0 C 7,9 km/h (2 Bft)
14.03.2018 04:00 22,7 C 2,0 C 61 % 94 % 1010,7 hPa 0,2 l/m 0,0 km/h (0 Bft) N 0,00 h 0,0 UV-I 0 W/m 1,1 C 2,0 C 0,0 km/h (0 Bft)
14.03.2018 05:00 22,6 C 1,7 C 61 % 95 % 1011,1 hPa 0,0 l/m 0,0 km/h (0 Bft) N 0,00 h 0,0 UV-I 0 W/m 0,9 C 1,7 C 0,0 km/h (0 Bft)
14.03.2018 06:00 22,8 C 1,5 C 61 % 95 % 1011,6 hPa 0,0 l/m 0,0 km/h (0 Bft) N 0,00 h 0,0 UV-I 0 W/m 0,8 C 1,5 C 0,0 km/h (0 Bft)
14.03.2018 07:00 22,8 C 1,5 C 61 % 95 % 1012,1 hPa 0,0 l/m 1,1 km/h (1 Bft) W-SW 0,00 h 0,0 UV-I 10 W/m 0,8 C 1,5 C 2,6 km/h (1 Bft)
14.03.2018 08:00 22,9 C 2,0 C 60 % 95 % 1012,5 hPa 0,0 l/m 1,9 km/h (1 Bft) SW 0,12 h 0,7 UV-I 68 W/m 1,3 C 1,9 C 4,1 km/h (1 Bft)
14.03.2018 09:00 23,1 C 2,9 C 60 % 94 % 1012,6 hPa 0,0 l/m 2,2 km/h (1 Bft) W-SW 0,07 h 0,7 UV-I 95 W/m 2,0 C 2,8 C 4,3 km/h (1 Bft)
14.03.2018 10:00 23,2 C 3,4 C 60 % 92 % 1012,8 hPa 0,0 l/m 4,3 km/h (1 Bft) W-SW 0,52 h 1,0 UV-I 160 W/m 2,2 C 2,7 C 7,6 km/h (2 Bft)
14.03.2018 11:00 23,4 C 3,9 C 59 % 88 % 1012,8 hPa 0,0 l/m 6,1 km/h (2 Bft) W-SW 0,42 h 1,0 UV-I 140 W/m 2,1 C 3,1 C 11,0 km/h (2 Bft)
14.03.2018 12:00 23,3 C 3,4 C 59 % 91 % 1012,7 hPa 0,2 l/m 2,0 km/h (1 Bft) W-SW 0,18 h 0,8 UV-I 110 W/m 2,0 C 3,3 C 4,0 km/h (1 Bft)
14.03.2018 13:00 23,3 C 3,7 C 59 % 91 % 1012,3 hPa 0,0 l/m 6,6 km/h (2 Bft) W-SW 0,10 h 0,8 UV-I 107 W/m 2,4 C 2,2 C 10,9 km/h (2 Bft)
14.03.2018 14:00 23,3 C 3,8 C 59 % 89 % 1012,0 hPa 0,0 l/m 5,7 km/h (1 Bft) W-SW 0,35 h 0,8 UV-I 124 W/m 2,1 C 3,0 C 10,2 km/h (2 Bft)
14.03.2018 15:00 23,3 C 3,7 C 59 % 88 % 1011,7 hPa 0,0 l/m 3,1 km/h (1 Bft) W-SW 0,00 h 0,7 UV-I 119 W/m 1,9 C 3,3 C 5,8 km/h (2 Bft)
14.03.2018 16:00 23,4 C 3,8 C 59 % 86 % 1011,3 hPa 0,0 l/m 0,2 km/h (0 Bft) W-SW 0,00 h 0,5 UV-I 77 W/m 1,7 C 3,8 C 0,4 km/h (0 Bft)
14.03.2018 17:00 23,2 C 3,6 C 59 % 87 % 1011,0 hPa 0,0 l/m 0,0 km/h (0 Bft) N 0,00 h 0,0 UV-I 22 W/m 1,7 C 3,6 C 0,0 km/h (0 Bft)
14.03.2018 18:00 22,8 C 3,2 C 61 % 88 % 1011,0 hPa 0,0 l/m 0,0 km/h (0 Bft) N 0,00 h 0,0 UV-I 5 W/m 1,4 C 3,2 C 0,0 km/h (0 Bft)
14.03.2018 19:00 23,0 C 2,7 C 61 % 88 % 1010,9 hPa 0,0 l/m 0,0 km/h (0 Bft) N 0,00 h 0,0 UV-I 0 W/m 0,9 C 2,7 C 0,0 km/h (0 Bft)
14.03.2018 20:00 23,2 C 1,9 C 60 % 90 % 1010,8 hPa 0,0 l/m 0,0 km/h (0 Bft) N 0,00 h 0,0 UV-I 0 W/m 0,5 C 1,9 C 0,0 km/h (0 Bft)
14.03.2018 21:00 23,2 C 1,5 C 60 % 92 % 1010,6 hPa 0,0 l/m 0,0 km/h (0 Bft) N 0,00 h 0,0 UV-I 0 W/m 0,3 C 1,5 C 0,0 km/h (0 Bft)
14.03.2018 22:00 23,3 C 0,9 C 61 % 92 % 1010,4 hPa 0,0 l/m 0,0 km/h (0 Bft) N 0,00 h 0,0 UV-I 0 W/m -0,3 C 0,9 C 0,0 km/h (0 Bft)
14.03.2018 23:00 23,3 C 0,0 C 61 % 92 % 1010,1 hPa 0,0 l/m 0,0 km/h (0 Bft) N 0,00 h 0,0 UV-I 0 W/m -1,0 C 0,0 C 0,0 km/h (0 Bft)
15.03.2018 00:00 23,1 C -0,4 C 61 % 93 % 1009,6 hPa 0,0 l/m 0,0 km/h (0 Bft) N 0,00 h 0,0 UV-I 0 W/m -1,4 C -0,4 C 0,0 km/h (0 Bft)
15.03.2018 01:00 22,9 C -1,0 C 62 % 94 % 1009,0 hPa 0,0 l/m 0,0 km/h (0 Bft) N 0,00 h 0,0 UV-I 0 W/m -1,9 C -1,0 C 0,0 km/h (0 Bft)
15.03.2018 02:00 22,7 C -1,2 C 62 % 94 % 1008,2 hPa 0,0 l/m 0,0 km/h (0 Bft) N 0,00 h 0,0 UV-I 0 W/m -2,0 C -1,2 C 0,0 km/h (0 Bft)
15.03.2018 03:00 22,7 C -0,7 C 62 % 95 % 1007,4 hPa 0,0 l/m 0,0 km/h (0 Bft) N 0,00 h 0,0 UV-I 0 W/m -1,4 C -0,7 C 0,0 km/h (0 Bft)
15.03.2018 04:00 22,6 C 0,5 C 63 % 96 % 1006,9 hPa 0,0 l/m 0,4 km/h (0 Bft) O-NO 0,00 h 0,0 UV-I 0 W/m -0,1 C 0,5 C 1,4 km/h (1 Bft)
15.03.2018 05:00 22,6 C 1,2 C 63 % 95 % 1006,9 hPa 0,0 l/m 3,9 km/h (1 Bft) O-SO 0,00 h 0,0 UV-I 0 W/m 0,4 C 0,8 C 7,4 km/h (2 Bft)
15.03.2018 06:00 22,6 C 1,4 C 63 % 93 % 1006,9 hPa 0,0 l/m 2,6 km/h (1 Bft) O-SO 0,00 h 0,0 UV-I 11 W/m 0,5 C 1,4 C 5,4 km/h (1 Bft)
15.03.2018 07:00 22,7 C 1,6 C 63 % 93 % 1006,5 hPa 0,0 l/m 4,4 km/h (1 Bft) O 0,00 h 0,0 UV-I 32 W/m 0,6 C 1,3 C 8,8 km/h (2 Bft)
15.03.2018 08:00 23,0 C 2,2 C 62 % 91 % 1006,3 hPa 0,0 l/m 6,0 km/h (2 Bft) O-SO 0,15 h 0,6 UV-I 116 W/m 0,8 C 1,2 C 11,4 km/h (2 Bft)
15.03.2018 09:00 23,5 C 3,1 C 60 % 87 % 1005,7 hPa 0,0 l/m 6,0 km/h (2 Bft) O 0,97 h 1,1 UV-I 227 W/m 1,2 C 1,8 C 12,5 km/h (3 Bft)
15.03.2018 10:00 23,7 C 3,5 C 58 % 85 % 1005,3 hPa 0,0 l/m 7,9 km/h (2 Bft) O 1,00 h 1,3 UV-I 241 W/m 1,2 C 1,6 C 14,9 km/h (3 Bft)
15.03.2018 11:00 23,6 C 5,1 C 55 % 81 % 1004,7 hPa 0,0 l/m 6,0 km/h (2 Bft) O-SO 1,00 h 2,0 UV-I 352 W/m 2,0 C 3,9 C 12,6 km/h (3 Bft)
15.03.2018 12:00 23,7 C 6,2 C 55 % 75 % 1004,1 hPa 0,2 l/m 8,3 km/h (2 Bft) O-SO 1,00 h 2,0 UV-I 383 W/m 2,2 C 4,1 C 15,6 km/h (3 Bft)
15.03.2018 13:00 23,9 C 7,2 C 55 % 71 % 1003,0 hPa 0,0 l/m 11,8 km/h (2 Bft) O-SO 1,00 h 2,0 UV-I 475 W/m 2,3 C 3,7 C 21,2 km/h (4 Bft)
15.03.2018 14:00 24,0 C 8,0 C 56 % 68 % 1001,9 hPa 0,0 l/m 11,5 km/h (2 Bft) O 1,00 h 1,8 UV-I 480 W/m 2,4 C 4,7 C 21,6 km/h (4 Bft)
15.03.2018 15:00 23,9 C 7,8 C 56 % 66 % 1001,7 hPa 0,0 l/m 13,5 km/h (3 Bft) O-SO 1,00 h 1,1 UV-I 274 W/m 1,9 C 3,5 C 22,7 km/h (4 Bft)
15.03.2018 16:00 23,7 C 6,9 C 56 % 70 % 1001,3 hPa 0,0 l/m 9,3 km/h (2 Bft) O-SO 0,50 h 0,6 UV-I 148 W/m 1,9 C 4,5 C 16,2 km/h (3 Bft)
15.03.2018 17:00 23,5 C 6,4 C 56 % 73 % 1000,9 hPa 0,0 l/m 8,0 km/h (2 Bft) O-SO 0,00 h 0,0 UV-I 43 W/m 2,0 C 4,6 C 15,4 km/h (3 Bft)
15.03.2018 18:00 23,3 C 5,2 C 56 % 77 % 1000,8 hPa 0,0 l/m 11,1 km/h (2 Bft) O-SO 0,00 h 0,0 UV-I 7 W/m 1,4 C 1,7 C 20,4 km/h (4 Bft)
15.03.2018 19:00 23,2 C 4,8 C 58 % 78 % 1001,0 hPa 0,0 l/m 6,4 km/h (2 Bft) O 0,00 h 0,0 UV-I 0 W/m 1,3 C 3,7 C 12,5 km/h (3 Bft)
15.03.2018 20:00 23,2 C 4,7 C 58 % 79 % 1000,7 hPa 0,0 l/m 6,9 km/h (2 Bft) O 0,00 h 0,0 UV-I 0 W/m 1,4 C 3,4 C 13,3 km/h (3 Bft)
15.03.2018 21:00 23,2 C 4,6 C 58 % 79 % 1000,3 hPa 0,0 l/m 6,7 km/h (2 Bft) O-SO 0,00 h 0,0 UV-I 0 W/m 1,3 C 3,2 C 14,8 km/h (3 Bft)
15.03.2018 22:00 23,2 C 4,5 C 59 % 81 % 1000,5 hPa 0,0 l/m 3,3 km/h (1 Bft) O-SO 0,00 h 0,0 UV-I 0 W/m 1,6 C 4,3 C 7,6 km/h (2 Bft)
15.03.2018 23:00 23,2 C 4,6 C 59 % 83 % 1000,6 hPa 0,0 l/m 4,4 km/h (1 Bft) O-SO 0,00 h 0,0 UV-I 0 W/m 1,9 C 4,2 C 9,6 km/h (2 Bft)
16.03.2018 00:00 23,1 C 4,5 C 60 % 85 % 1000,5 hPa 0,0 l/m 2,5 km/h (1 Bft) O-SO 0,00 h 0,0 UV-I 0 W/m 2,2 C 4,4 C 6,2 km/h (2 Bft)
16.03.2018 01:00 22,8 C 4,5 C 61 % 88 % 1000,8 hPa 0,4 l/m 0,9 km/h (0 Bft) O-SO 0,00 h 0,0 UV-I 0 W/m 2,6 C 4,5 C 2,3 km/h (1 Bft)
16.03.2018 02:00 22,8 C 4,3 C 62 % 91 % 1000,6 hPa 0,4 l/m 0,0 km/h (0 Bft) N 0,00 h 0,0 UV-I 0 W/m 2,9 C 4,3 C 0,0 km/h (0 Bft)
16.03.2018 03:00 22,8 C 4,0 C 61 % 92 % 1000,6 hPa 0,0 l/m 0,0 km/h (0 Bft) N 0,00 h 0,0 UV-I 0 W/m 2,9 C 4,0 C 0,0 km/h (0 Bft)
16.03.2018 04:00 22,8 C 3,9 C 61 % 93 % 1000,5 hPa 0,2 l/m 0,0 km/h (0 Bft) N 0,00 h 0,0 UV-I 0 W/m 2,9 C 3,9 C 0,0 km/h (0 Bft)
16.03.2018 05:00 22,8 C 3,9 C 61 % 94 % 1000,5 hPa 0,4 l/m 0,0 km/h (0 Bft) N 0,00 h 0,0 UV-I 0 W/m 2,9 C 3,9 C 0,0 km/h (0 Bft)
16.03.2018 06:00 23,0 C 3,8 C 61 % 94 % 1000,7 hPa 0,2 l/m 0,0 km/h (0 Bft) N 0,00 h 0,0 UV-I 5 W/m 2,9 C 3,8 C 0,0 km/h (0 Bft)
16.03.2018 07:00 23,2 C 3,8 C 61 % 95 % 1000,8 hPa 0,0 l/m 0,0 km/h (0 Bft) N 0,00 h 0,0 UV-I 10 W/m 3,1 C 3,8 C 0,0 km/h (0 Bft)
16.03.2018 08:00 23,3 C 3,9 C 60 % 95 % 1001,1 hPa 0,0 l/m 0,0 km/h (0 Bft) N 0,00 h 0,0 UV-I 25 W/m 3,2 C 3,9 C 0,0 km/h (0 Bft)
16.03.2018 09:00 23,2 C 4,3 C 60 % 96 % 1001,4 hPa 0,2 l/m 0,0 km/h (0 Bft) N 0,00 h 0,6 UV-I 57 W/m 3,7 C 4,3 C 0,0 km/h (0 Bft)
16.03.2018 10:00 23,3 C 5,0 C 59 % 96 % 1001,5 hPa 0,0 l/m 0,0 km/h (0 Bft) N 0,00 h 0,6 UV-I 66 W/m 4,4 C 5,0 C 0,0 km/h (0 Bft)
16.03.2018 11:00 23,7 C 6,2 C 58 % 95 % 1001,4 hPa 0,0 l/m 0,0 km/h (0 Bft) N 0,52 h 1,1 UV-I 174 W/m 5,5 C 6,2 C 0,0 km/h (0 Bft)
16.03.2018 12:00 23,7 C 7,7 C 58 % 89 % 1001,0 hPa 0,0 l/m 0,5 km/h (0 Bft) W-SW 0,42 h 1,0 UV-I 150 W/m 6,0 C 7,7 C 0,7 km/h (0 Bft)
16.03.2018 13:00 23,6 C 7,2 C 59 % 91 % 1000,9 hPa 0,0 l/m 1,9 km/h (1 Bft) W-SW 0,10 h 0,7 UV-I 82 W/m 5,8 C 7,2 C 4,1 km/h (1 Bft)
16.03.2018 14:00 23,5 C 6,8 C 59 % 92 % 1001,0 hPa 0,2 l/m 4,1 km/h (1 Bft) W-SW 0,02 h 0,6 UV-I 86 W/m 5,6 C 6,3 C 7,4 km/h (2 Bft)
16.03.2018 15:00 23,7 C 6,6 C 58 % 94 % 1001,1 hPa 0,6 l/m 2,3 km/h (1 Bft) W 0,12 h 0,6 UV-I 87 W/m 5,7 C 6,5 C 3,4 km/h (1 Bft)
16.03.2018 16:00 23,6 C 6,8 C 59 % 92 % 1001,0 hPa 0,0 l/m 1,5 km/h (1 Bft) W-SW 0,13 h 0,6 UV-I 103 W/m 5,7 C 6,8 C 2,0 km/h (1 Bft)
16.03.2018 17:00 23,4 C 6,8 C 59 % 92 % 1001,1 hPa 0,2 l/m 0,0 km/h (0 Bft) W-SW 0,00 h 0,0 UV-I 25 W/m 5,5 C 6,8 C 0,2 km/h (0 Bft)
16.03.2018 18:00 23,3 C 5,9 C 59 % 93 % 1001,6 hPa 1,6 l/m 2,0 km/h (1 Bft) W-SW 0,00 h 0,0 UV-I 0 W/m 4,8 C 5,7 C 4,4 km/h (1 Bft)
16.03.2018 19:00 23,3 C 4,5 C 59 % 93 % 1002,4 hPa 0,0 l/m 5,4 km/h (1 Bft) N-NW 0,00 h 0,0 UV-I 0 W/m 3,5 C 4,0 C 7,1 km/h (2 Bft)
16.03.2018 20:00 23,3 C 2,7 C 60 % 93 % 1003,1 hPa 0,0 l/m 3,2 km/h (1 Bft) N 0,00 h 0,0 UV-I 0 W/m 1,7 C 2,7 C 0,0 km/h (0 Bft)
16.03.2018 21:00 23,2 C 1,4 C 60 % 93 % 1003,7 hPa 0,0 l/m 4,2 km/h (1 Bft) N 0,00 h 0,0 UV-I 0 W/m 0,4 C 1,1 C 3,6 km/h (1 Bft)
16.03.2018 22:00 23,4 C 0,8 C 60 % 93 % 1003,7 hPa 0,0 l/m 4,0 km/h (1 Bft) N 0,00 h 0,0 UV-I 0 W/m -0,1 C 0,0 C 3,8 km/h (1 Bft)
16.03.2018 23:00 23,5 C 0,4 C 60 % 94 % 1003,6 hPa 0,0 l/m 4,9 km/h (1 Bft) N 0,00 h 0,0 UV-I 0 W/m -0,4 C -0,3 C 4,4 km/h (1 Bft)
17.03.2018 00:00 23,2 C 0,1 C 61 % 94 % 1003,4 hPa 0,2 l/m 6,3 km/h (2 Bft) N 0,00 h 0,0 UV-I 0 W/m -0,7 C -0,7 C 10,1 km/h (2 Bft)
17.03.2018 01:00 23,0 C -0,2 C 61 % 94 % 1003,5 hPa 0,8 l/m 5,4 km/h (1 Bft) N 0,00 h 0,0 UV-I 0 W/m -1,1 C -0,7 C 7,2 km/h (2 Bft)
17.03.2018 02:00 23,4 C -0,4 C 61 % 94 % 1003,5 hPa 0,2 l/m 1,2 km/h (1 Bft) N 0,00 h 0,0 UV-I 0 W/m -1,2 C -0,4 C 0,3 km/h (0 Bft)
17.03.2018 03:00 23,2 C -1,0 C 61 % 94 % 1003,3 hPa 0,0 l/m 4,1 km/h (1 Bft) N 0,00 h 0,0 UV-I 0 W/m -1,8 C -1,1 C 4,3 km/h (1 Bft)
17.03.2018 04:00 22,8 C -1,4 C 62 % 93 % 1003,1 hPa 0,0 l/m 4,0 km/h (1 Bft) NO 0,00 h 0,0 UV-I 0 W/m -2,4 C -1,6 C 9,1 km/h (2 Bft)
17.03.2018 05:00 22,7 C -1,5 C 62 % 91 % 1003,4 hPa 0,0 l/m 3,9 km/h (1 Bft) O-NO 0,00 h 0,0 UV-I 0 W/m -2,7 C -1,5 C 8,9 km/h (2 Bft)
17.03.2018 06:00 22,7 C -1,7 C 62 % 90 % 1003,2 hPa 0,0 l/m 3,5 km/h (1 Bft) NO 0,00 h 0,0 UV-I 5 W/m -3,1 C -1,8 C 8,6 km/h (2 Bft)
17.03.2018 07:00 22,9 C -1,9 C 62 % 89 % 1003,3 hPa 0,0 l/m 5,9 km/h (2 Bft) NO 0,00 h 0,0 UV-I 8 W/m -3,5 C -3,1 C 7,6 km/h (2 Bft)
17.03.2018 08:00 22,9 C -2,3 C 62 % 89 % 1003,5 hPa 0,0 l/m 5,5 km/h (1 Bft) NO 0,00 h 0,0 UV-I 14 W/m -3,9 C -3,4 C 10,8 km/h (2 Bft)
17.03.2018 09:00 23,0 C -2,6 C 62 % 88 % 1003,5 hPa 0,0 l/m 8,5 km/h (2 Bft) NO 0,00 h 0,0 UV-I 25 W/m -4,3 C -5,5 C 13,2 km/h (3 Bft)
17.03.2018 10:00 23,1 C -2,7 C 61 % 86 % 1003,7 hPa 0,0 l/m 8,2 km/h (2 Bft) NO 0,00 h 0,0 UV-I 32 W/m -4,6 C -5,2 C 11,8 km/h (2 Bft)
17.03.2018 11:00 23,1 C -2,4 C 61 % 84 % 1003,6 hPa 0,0 l/m 10,6 km/h (2 Bft) NO 0,00 h 0,5 UV-I 60 W/m -4,7 C -6,7 C 17,2 km/h (3 Bft)
17.03.2018 12:00 23,0 C -2,0 C 57 % 83 % 1003,3 hPa 0,0 l/m 11,6 km/h (2 Bft) O-NO 0,00 h 0,5 UV-I 61 W/m -4,5 C -6,8 C 19,6 km/h (3 Bft)
17.03.2018 13:00 22,9 C -2,5 C 54 % 84 % 1003,2 hPa 0,0 l/m 9,4 km/h (2 Bft) NO 0,00 h 0,0 UV-I 38 W/m -4,8 C -5,8 C 16,1 km/h (3 Bft)
17.03.2018 14:00 22,9 C -3,1 C 54 % 85 % 1003,3 hPa 0,0 l/m 12,4 km/h (3 Bft) NO 0,00 h 0,0 UV-I 35 W/m -5,2 C -8,6 C 21,8 km/h (4 Bft)
17.03.2018 15:00 22,8 C -3,7 C 57 % 87 % 1003,5 hPa 0,0 l/m 14,6 km/h (3 Bft) NO 0,00 h 0,0 UV-I 22 W/m -5,5 C -10,8 C 24,2 km/h (4 Bft)
17.03.2018 16:00 22,8 C -4,0 C 57 % 87 % 1003,7 hPa 0,0 l/m 11,3 km/h (2 Bft) O-NO 0,00 h 0,0 UV-I 12 W/m -5,9 C -8,7 C 20,4 km/h (4 Bft)
17.03.2018 17:00 22,8 C -4,2 C 57 % 86 % 1003,9 hPa 0,0 l/m 8,3 km/h (2 Bft) NO 0,00 h 0,0 UV-I 12 W/m -6,1 C -6,5 C 16,6 km/h (3 Bft)
17.03.2018 18:00 22,8 C -4,4 C 58 % 85 % 1004,4 hPa 0,0 l/m 9,9 km/h (2 Bft) NO 0,00 h 0,0 UV-I 0 W/m -6,5 C -8,3 C 16,9 km/h (3 Bft)
17.03.2018 19:00 22,7 C -4,7 C 58 % 85 % 1004,9 hPa 0,0 l/m 9,4 km/h (2 Bft) O-NO 0,00 h 0,0 UV-I 0 W/m -6,8 C -8,1 C 17,3 km/h (3 Bft)
17.03.2018 20:00 22,7 C -4,8 C 58 % 86 % 1005,3 hPa 0,0 l/m 7,9 km/h (2 Bft) NO 0,00 h 0,0 UV-I 0 W/m -6,8 C -7,1 C 15,2 km/h (3 Bft)
17.03.2018 21:00 22,7 C -4,9 C 58 % 87 % 1005,6 hPa 0,0 l/m 12,3 km/h (3 Bft) NO 0,00 h 0,0 UV-I 0 W/m -6,8 C -10,6 C 21,9 km/h (4 Bft)
17.03.2018 22:00 22,7 C -5,1 C 58 % 87 % 1005,6 hPa 0,0 l/m 11,9 km/h (2 Bft) NO 0,00 h 0,0 UV-I 0 W/m -6,9 C -10,3 C 21,1 km/h (4 Bft)
17.03.2018 23:00 22,7 C -5,3 C 58 % 87 % 1005,8 hPa 0,0 l/m 9,9 km/h (2 Bft) NO 0,00 h 0,0 UV-I 0 W/m -7,1 C -9,4 C 20,0 km/h (4 Bft)
18.03.2018 00:00 22,6 C -5,3 C 61 % 87 % 1005,8 hPa 0,0 l/m 10,8 km/h (2 Bft) O-NO 0,00 h 0,0 UV-I 0 W/m -7,1 C -9,8 C 21,1 km/h (4 Bft)
18.03.2018 01:00 22,6 C -5,4 C 61 % 86 % 1006,0 hPa 0,0 l/m 14,3 km/h (3 Bft) O-NO 0,00 h 0,0 UV-I 0 W/m -7,3 C -12,6 C 26,1 km/h (4 Bft)
18.03.2018 02:00 22,5 C -5,6 C 62 % 86 % 1006,0 hPa 0,0 l/m 12,1 km/h (2 Bft) O-NO 0,00 h 0,0 UV-I 0 W/m -7,5 C -11,3 C 21,6 km/h (4 Bft)
18.03.2018 03:00 22,4 C -5,8 C 62 % 85 % 1006,0 hPa 0,0 l/m 12,3 km/h (3 Bft) O-NO 0,00 h 0,0 UV-I 0 W/m -7,9 C -11,7 C 22,5 km/h (4 Bft)
18.03.2018 04:00 22,3 C -6,0 C 63 % 86 % 1006,2 hPa 0,0 l/m 9,7 km/h (2 Bft) O-NO 0,00 h 0,0 UV-I 0 W/m -8,0 C -9,7 C 17,3 km/h (3 Bft)
18.03.2018 05:00 22,3 C -6,2 C 63 % 86 % 1006,3 hPa 0,0 l/m 11,1 km/h (2 Bft) O-NO 0,00 h 0,0 UV-I 0 W/m -8,2 C -11,0 C 20,3 km/h (4 Bft)
18.03.2018 06:00 22,5 C -6,2 C 63 % 82 % 1006,7 hPa 0,0 l/m 13,2 km/h (3 Bft) NO 0,00 h 0,0 UV-I 7 W/m -8,7 C -12,8 C 23,8 km/h (4 Bft)
18.03.2018 07:00 22,6 C -6,2 C 62 % 81 % 1007,4 hPa 0,0 l/m 11,9 km/h (2 Bft) O-NO 0,00 h 0,0 UV-I 20 W/m -9,0 C -11,6 C 22,4 km/h (4 Bft)
18.03.2018 08:00 22,7 C -6,0 C 62 % 81 % 1007,9 hPa 0,0 l/m 10,3 km/h (2 Bft) NO 0,00 h 0,0 UV-I 54 W/m -8,8 C -10,5 C 18,8 km/h (3 Bft)
18.03.2018 09:00 22,8 C -5,6 C 61 % 79 % 1008,2 hPa 0,0 l/m 9,7 km/h (2 Bft) NO 0,00 h 0,5 UV-I 105 W/m -8,6 C -9,1 C 19,4 km/h (3 Bft)
18.03.2018 10:00 22,9 C -4,9 C 60 % 78 % 1008,4 hPa 0,0 l/m 6,6 km/h (2 Bft) N-NO 0,38 h 0,7 UV-I 153 W/m -8,1 C -6,1 C 14,5 km/h (3 Bft)
18.03.2018 11:00 23,1 C -4,4 C 58 % 76 % 1008,8 hPa 0,0 l/m 9,0 km/h (2 Bft) N-NO 1,00 h 1,0 UV-I 219 W/m -7,9 C -7,5 C 17,9 km/h (3 Bft)
18.03.2018 12:00 22,8 C -4,2 C 55 % 75 % 1009,1 hPa 0,0 l/m 9,9 km/h (2 Bft) O-NO 1,00 h 1,4 UV-I 268 W/m -8,0 C -8,0 C 18,9 km/h (3 Bft)
18.03.2018 13:00 22,7 C -4,1 C 55 % 74 % 1009,0 hPa 0,0 l/m 12,5 km/h (3 Bft) O-NO 1,00 h 1,3 UV-I 226 W/m -8,0 C -9,7 C 23,7 km/h (4 Bft)
18.03.2018 14:00 22,7 C -3,9 C 57 % 74 % 1009,0 hPa 0,0 l/m 13,3 km/h (3 Bft) O-NO 1,00 h 1,0 UV-I 192 W/m -7,8 C -10,2 C 23,3 km/h (4 Bft)
18.03.2018 15:00 22,6 C -3,5 C 53 % 73 % 1008,9 hPa 0,0 l/m 11,6 km/h (2 Bft) O-NO 0,52 h 0,8 UV-I 162 W/m -7,6 C -8,4 C 20,7 km/h (4 Bft)
18.03.2018 16:00 22,3 C -3,7 C 49 % 73 % 1009,3 hPa 0,0 l/m 12,7 km/h (3 Bft) NO 0,00 h 0,5 UV-I 87 W/m -7,8 C -9,5 C 23,6 km/h (4 Bft)
18.03.2018 17:00 22,2 C -3,9 C 51 % 75 % 1010,0 hPa 0,0 l/m 9,8 km/h (2 Bft) NO 0,00 h 0,0 UV-I 28 W/m -7,8 C -7,7 C 18,1 km/h (3 Bft)
18.03.2018 18:00 22,2 C -4,2 C 56 % 75 % 1010,5 hPa 0,0 l/m 6,1 km/h (2 Bft) O-NO 0,00 h 0,0 UV-I 6 W/m -7,8 C -5,4 C 13,2 km/h (3 Bft)
18.03.2018 19:00 22,3 C -4,4 C 56 % 74 % 1011,1 hPa 0,0 l/m 8,8 km/h (2 Bft) O-NO 0,00 h 0,0 UV-I 0 W/m -8,3 C -7,3 C 16,9 km/h (3 Bft)
18.03.2018 20:00 22,3 C -4,7 C 60 % 75 % 1011,5 hPa 0,0 l/m 7,3 km/h (2 Bft) O-NO 0,00 h 0,0 UV-I 0 W/m -8,5 C -6,6 C 13,7 km/h (3 Bft)
18.03.2018 21:00 22,3 C -4,9 C 61 % 74 % 1011,6 hPa 0,0 l/m 6,9 km/h (2 Bft) O-NO 0,00 h 0,0 UV-I 0 W/m -8,8 C -6,5 C 13,4 km/h (3 Bft)
18.03.2018 22:00 22,3 C -5,1 C 61 % 71 % 1011,8 hPa 0,0 l/m 8,5 km/h (2 Bft) O-NO 0,00 h 0,0 UV-I 0 W/m -9,4 C -7,9 C 15,6 km/h (3 Bft)
18.03.2018 23:00 22,3 C -5,4 C 61 % 71 % 1011,8 hPa 0,0 l/m 8,8 km/h (2 Bft) O-NO 0,00 h 0,0 UV-I 0 W/m -9,9 C -8,5 C 15,5 km/h (3 Bft)
Min-Datum _ 18.03.18 18.03.18 15.03.18 15.03.18 12.03.18 - 12.03.18 - - - - 18.03.18 18.03.18 12.03.18
_ Min-Zeit 17:21 05:41 11:23 15:13 04:49 - 00:00 - - - - 23:46 06:03 00:01
Minimum _ 22,1 C -6,3 C 48 % 64 % 992,5 hPa - 0,0 km/h (0 Bft) - - - - -10,2 C -19,7 C 0,0 km/h (0 Bft)
Max-Datum _ 15.03.18 13.03.18 15.03.18 12.03.18 14.03.18 12.03.18 15.03.18 - 15.03.18 15.03.18 13.03.18 12.03.18 13.03.18 17.03.18
_ Max-Zeit 14:08 14:01 06:20 10:54 10:08 08:04 13:08 - 10:16 11:41 14:02 12:11 13:59 15:15
Maximum _ 24,0 C 9,1 C 64 % 97 % 1012,9 hPa 2,6 l/m 24,1 km/h
O-SO (4 Bft)
- 0,03 h 2,8 UV-I 682 W/m 7,9 C 8,9 C 43,5 km/h
O-NO (6 Bft)
Durchschnitt _ 23,0 C 2,4 C 59 % 88 % 1003,9 hPa #21,4 l/m 5,0 km/h (1 Bft) O-NO #16:33 h 0,9 UV-I 94 W/m 0,5 C 1,0 C 9,4 km/h (2 Bft)